Manhattan Regional Airport
KMHK : rendu visible

Aérodrome :











RETROUVEZ-NOUS SUR...

 
LOGIN :

S'inscrire | Disclaimer

   EN    FR    IT 

 









Légende :    VFR   VFR Marginal   IFR   IFR Intensif   IFR Très Intensif
Visi : 
Plafond : 
>= 8 km
>= 3000ft
5 à 8 km
1000 à 3000 ft
1500m à 5 km
500 à 1000 ft
800 à 1500m
200 à 500 ft
< 800m
< 200 ft
Symboles :   Orages  Brouillard  Fortes neiges  Fortes précipitations  Vent > 20 kt






- Altitude de l'aérodrome : 1057 ft
- Code IATA : MHK


KMHK - Manhattan Regional

DERNIER METAR :
  • 021452Z 16013G23KT 10SM OVC041 18/09 A2981 RMK AO2 SLP090 T01780089 50011

METARs EXPIRÉS :
  • 021352Z 16008KT 10SM CLR 16/09 A2982 RMK AO2 SLP095 T01610089
  • 021252Z 16008KT 10SM CLR 15/09 A2980 RMK AO2 SLP088 T01500089

TAF KMHK
Valide du 02 à 12h jusqu'au 03 à 12h UTC


021120Z 0212/0312 17012G20KT P6SM VCSH SCT040 BKN100
FM021500 17015G24KT P6SM BKN025
FM030100 07012KT 6SM -SHRA BKN015
FM030300 34013G21KT 5SM -SHRA OVC007



MET'MAP, la Météo Aéronautique d'un coup d'oeil ! - Copyright ORBIFLY Décembre 2007 - Disclaimer

ORBIFLY MET'MAP TEAM :

Programmation & Développement : Alexandra Zaïnal
Sur une idée originale de : Baudouin d'Aumeries
Assistance à la programmation : Marc-Olivier Méhu
Soutien technique & logistique : Manuel Goepfert

Contact : metmap@orbifly.com




SOURCES & CREDITS :

   NOAA       Earth
Advisory